STARLINK-32472, 61846

Orbit data source: Space-Track

STARLINK-32472, 61846 is a payload satellite owned by SpaceX/Seattle (US) in LEO that was launched on Thu, 07 Nov 2024 UTC via an FALCON 9 launch vehicle from the Air Force Eastern Test Range (AFETR). Payloads include a variety of satellites, spacecraft, and rockets equipped with specific instruments for various scientific and technological missions. These include communications satellites like Starlink; space stations such as the ISS; scientific satellites like the Hubble; Earth observation satellites from companies like Planet Labs, Umbra, and HawkEye 360; GPS; miniature CubeSats for education and research; and military/defense satellites.

Loading next visibility...
STARLINK-32472 details
Identifier
61846, 2024-202B
Orbit
LEO
Last TLE update8 hours ago
Origin
Flag of USSpaceX/Seattle (US)
ManufacturerSpaceX/Seattle
MissionOperational spacecraft
Bus & MotorSTARLINK V2M, Unknown motor
Mass730 kg wet, ~700 kg dry
Launch date (UTC)
2024-11-07 (2 months ago)
Launch vehicle
FALCON 9
Launch site
Air Force Eastern Test Range (AFETR)
Object type
Payload
Rocket body
Debris
Shape & HBRUnknown
Radar Cross SectionLarge (>1 m²)

Expand to show TLE details & history

TLE from 8 hours ago
0 STARLINK-32472
1 61846U 24202B   24361.60631830  .00003665  00000-0  94946-4 0  9994
2 61846  42.9996 201.1304 0002050 252.5490 107.5142 15.40707134  8225
Epoch: 2024-12-26T14:33Z
Definitive object data (Epoch: 2024-12-26T14:33:05.901Z)
Latitude-0.00004°
Longitude-112.72752°
Altitude444.216 km
Speed7.647 km/s
True Right ascension13h 24m 31s
True Declination0° 00' 00"
Sunlit
Object was in daylight at TLE epoch
Visualization TLE readout
Latitude34.81875°
Longitude17.39911°
Altitude446.353 km
Speed7.649 km/s
Apparent Right ascension20h 58m 03s
Apparent Declination-14° 37' 13"
Sunlit
Object is in daylight
Visualization observer readout
Local Sidereal Time22:15:05
Azimuth202.259° SSW
Elevation32.592°
Doppler factor1
Orbital elements
Apogee altitude447.376 km
Perigee altitude444.578 km
Semi-major axis6,824.114 km
Eccentricity0.000205
Inclination42.9996°
RAAN201.1304°
Arg. of periapsis252.549°
True anomaly107.5366°
Mean anomaly107.5142°
Eccentric anomaly107.5254°
Mean motion3.85012 °/min
BSTAR0.000094946
Orbital period93.5 mins
Loading maneuver chart data...
Loading historical data...
Loading historical data...
Loading historical data...
Loading historical data...
Loading historical data...
Loading historical data...
Loading historical data...

STARLINK-32472 Visibility forecast

Observer location: undefined°, undefined

Span
Click to sort rows by Start time (UTC) header in descending order
Start Az.
Max El. time (UTC)
Max El. Az.
Max El.
End time (UTC)
End Az.
5 mins2024-12-27 17:14:51.590Z231.166° WSW2024-12-27 17:16:51.590Z154.347° SSE41.448°2024-12-27 17:19:51.590Z76.83° E
5 mins2024-12-27 18:52:51.590Z282.817° WNW2024-12-27 18:54:51.590Z344.501° N38.377°2024-12-27 18:57:51.590Z69.462° E
5 mins2024-12-27 20:30:51.590Z293.356° NW2024-12-27 20:32:51.590Z331.607° NNW39.328°2024-12-27 20:35:51.590Z90.11° ESE
4 mins2024-12-27 22:09:51.590Z259.615° W2024-12-27 22:10:51.590Z229.545° WSW31.581°2024-12-27 22:13:51.590Z142.49° SSE
|